www.pogodaiklimat.ru

Погода и климат >> Архив погоды >> Лаос >> Attapeu


ПОГОДА в Attapeu

  • Прогноз погоды в Attapeu
  • Монитор погоды в Attapeu
  • Климат города

АРХИВ ПОГОДЫ в Attapeu

Время (UTC), дата Ветер
(напр.,м/с)
 
Видим.   Явления Облачность Т
(С)
Тd
(С)
f
(%)
Тe
(С)
Тes
(С)
Комфортность P
(гПа)
Po
(гПа)
Тmin
(С)
Tmax
(С)
R
(мм)
R24
(мм)
S
(см)
06 22.04 15 км н/о +37.0 +24.3 48 +49 +66 опасность
перегрева
1005.5 995.2
09 22.04 С 1 10 км 5/4 600 м
[Cu Sc Ci sp]
+36.6 +22.8 45 +46 +50 опасность
перегрева
1002.3 992.0
12 22.04 штиль 0 3000 м дымка {туман} 8/5 600 м
[Cu Sc Ci sp]
+34.5 +24.6 56 +47 +47 опасность
перегрева
1004.7 994.3 +38.0
00 23.04 штиль 0 10 км 8/5 600 м
[Cu Sc Ci sp]
+26.0 +22.1 79 +34 +35 очень
душно
1008.9 998.2 +25.8
03 23.04 СЗ 1 15 км 9/6 600 м
[Cu Sc Ac As]
+32.0 +22.5 57 +41 +45 опасность
перегрева
1010.8 1000.0
06 23.04 В 1 15 км 8/4 600 м
[Cu med, cong]
+37.0 +23.5 46 +47 +57 опасность
перегрева
1008.9 997.2
09 23.04 Ю 1 10 км 8/8 600 м
[]
+35.5 +25.0 55 +49 +50 опасность
перегрева
1004.9 994.4
12 23.04 Ю 1 3000 м дымка {туман} 8/5 600 м
[Cu med, cong Ac lent Ci sp]
+20.2 +22.5 100 +25 +25 комфорт 1007.8 997.2 +37.5
00 24.04 С 1 8000 м дымка 5/4 600 м
[Cu med, cong Ci sp]
+27.0 +23.4 81 +37 +38 очень
душно
1010.6 999.9 +26.5
03 24.04 ЮВ 1 8000 м мгла {туман} 8/5 600 м
[Cu med, cong Ac lent Ci sp]
+32.0 +22.7 58 +42 +49 опасность
перегрева
1010.6 1000.0
06 24.04 8000 м мгла {туман} н/о +35.6 +27.3 62 +54 +66 опасность
перегрева
1008.0 997.6
09 24.04 ЮВ 2 8000 м мгла {туман} 8/5 600 м
[Cu med, cong Ac lent Ci sp]
+36.5 +22.2 44 +45 +47 опасность
перегрева
1004.9 994.6
12 24.04 Ю 1 4000 м дымка {туман} 8/5 600 м
[Cu med, cong Ac lent Ci sp]
+31.8 +23.9 63 +43 +43 опасность
перегрева
1006.4 995.9 +37.0
03 25.04 З 1 15 км 6/4 600 м
[Cu med, cong Ac trans Ci sp]
+28.8 +22.8 70 +38 +49 очень
душно
1010.4 999.8
09 25.04 З 1 15 км 6/4 600 м
[Cu med, cong Ac trans Ci sp]
+36.0 +23.1 47 +46 +49 опасность
перегрева
1004.1 993.8
12 25.04 С 1 4000 м дымка {туман} 6/4 600 м
[Cu med, cong Ac trans Ci sp]
+30.5 +19.0 50 +36 +36 очень
душно
1005.7 995.1 +37.6
00 26.04 штиль 0 10 км 8/5 600 м
[Cu med, cong Ci sp]
+25.0 +23.2 90 +33 +35 очень
душно
1008.9 998.1 +25.0
03 26.04 Ю 1 10 км 5/4 600 м
[Cu med, cong Ci sp]
+31.0 +23.8 66 +43 +55 опасность
перегрева
1010.6 999.8
06 26.04 Ю 2 18 км 9/6 600 м
[Cu Sc Ac As]
+34.5 +22.1 49 +43 +47 опасность
перегрева
1008.1 997.4
09 26.04 ЮЗ 2 15 км 9/6 600 м
[Cu Sc Ac As]
+34.5 +23.0 51 +44 +46 опасность
перегрева
1005.3 994.7
12 26.04 С 1 3000 м дымка {туман} 5/4 600 м
[Cu med, cong Ci sp]
+31.5 +22.0 57 +40 +40 очень
душно
1006.6 996.0 +35.5
00 27.04 С 1 6000 м дымка 9/6 600 м
[Cu Sc Ac As]
+26.5 +24.3 88 +37 +38 очень
душно
1009.6 998.8 +26.0
03 27.04 9000 м мгла {туман} 8/5 600 м
[Cu Sc Ci sp]
+29.8 +23.6 69 1010.1 999.5
06 27.04 Ю 2 10 км 5/4 600 м
[Cu med, cong Ci sp]
+33.0 +23.9 59 +45 +57 опасность
перегрева
1007.0 996.5
09 27.04 З 1 10 км 5/4 600 м
[Cu med, cong Ac trans Ci sp]
+35.0 +22.9 50 +45 +49 опасность
перегрева
1004.1 993.8
12 27.04 штиль 0 3000 м зарница {туман} 8/5 600 м
[Cb cap Ci sp]
+32.5 +23.1 58 +43 +43 опасность
перегрева
1006.7 996.2 +35.5
00 28.04 штиль 0 8000 м дымка 10/6 600 м
[Cu Sc Ac As]
+26.5 +22.8 80 +35 +36 очень
душно
1009.3 998.5 +26.2
03 28.04 Ю 1 10 км 6/4 600 м
[Cu med, cong Ac trans Ci sp]
+32.0 +22.5 57 +41 +52 опасность
перегрева
1009.8 999.3
06 28.04 ЮЗ 1 15 км 6/4 600 м
[Cu med, cong Ac trans Ci sp]
+36.0 +22.8 47 +46 +58 опасность
перегрева
1007.7 997.3
09 28.04 ЮЗ 1 6000 м слабый дождь {туман} 10/8 600 м
[Cu Sc Ac As]
+27.0 +23.4 81 +37 +37 очень
душно
1006.2 995.5 0.5
12 28.04 штиль 0 3000 м дымка {туман} 6/4 600 м
[Cu med, cong Ac trans Ci sp]
+26.5 +24.3 88 +37 +37 очень
душно
1007.5 996.8 +36.0 0.5
00 29.04 штиль 0 8000 м дымка 9/6 600 м
[Cu Sc Ac As]
+25.7 +24.0 90 +35 +36 очень
душно
1010.6 999.9 +25.5 0.5

 

Местоположение метеостанции Attapeu (Лаос): широта 14.80 долгота 106.83 высота над уровнем моря 105 м.

В архиве по умолчанию представлена погода в Attapeu за последнюю неделю. Архивные данные за месяц целиком и за предыдущие месяцы, начиная с января 2011 года, Вы можете получить, выбрав интересующий диапазон дат из раскрывающегося списка и нажав кнопку "Ввод!".

Внимание! Время в таблицах - всемирное. Для получения местного времени необходимо прибавить поправку, которая в Attapeu равна 7 ч.

Смотрите также архив погоды в соседних городах и на ближайших метеорологических станциях:

Погода в Sekong (Лаос) (61 км)
Погода в Saravane (Лаос) (107 км)
Погода в Pakse (Лаос) (118 км)
Погода в Pleiku City (Вьетнам) (156 км)
Погода в Hue (Вьетнам) (198 км)
Погода в Quang Ngai (Вьетнам) (213 км)
Погода в Da Nang (Вьетнам) (216 км)
Погода в Ubon Ratchathani (Таиланд) (217 км)
Погода в Banmethuot (Вьетнам) (272 км)
Погода в Si Saket Agromet (Таиланд) (278 км)

Пояснения к столбцам:

Ветер - указаны скорость ветра в м/с - средняя за 10 мин, порывы в срок и между сроками (в фигурных скобках) и направление, откуда дует ветер: С - северный, СВ - северо-восточный, В - восточный, ЮВ - юго-восточный, Ю - южный, ЮЗ - юго-западный, З - западный, СЗ - северо-западный.
Видимость - горизонтальная дальность видимости в метрах или километрах. При видимости от 1 до 10 км при отсутствии осадков обычно наблюдается дымка, при ухудшении видимости до 1 км и менее - туман. В сухую погоду видимость может ухудшаться дымом, пылью или мглою.
Явления - указаны атмосферные явления, наблюдавшиеся в срок или в последний час перед сроком; фигурными скобками обозначены явления, наблюдавшиеся между сроками (за 1-3 часа до срока); квадратными скобками обозначены град или гололедные отложения с указанием их диаметра в мм.
Облачность - указаны через наклонную черту общая и нижняя облачность в баллах и высота нижней границы облаков в метрах; квадратными скобками обозначены формы облаков: Ci - перистые, Cs - перисто-слоистые, Cc - перисто-кучевые, Ac - высококучевые, As - высокослоистые, Sc - слоисто-кучевые, Ns - слоисто-дождевые, Cu - кучевые, Cb - кучево-дождевые. Подробнее классификацию облаков см. в Атласе облаков (PDF).
T - Температура воздуха - температура, измеренная на высоте 2 м над землей.
Td - Температура точки росы - температура, при понижении до которой содержащийся в воздухе водяной пар достигнет насыщения.
f - Относительная влажность воздуха - влажноcть воздуха, измеренная на высоте 2 м над землей.
Te - Эффективная температура - температура, которую ощущает одетый по сезону человек в тени. Характеристика душности погоды. При расчете учитывается влияние влажности воздуха и скорости ветра на теплоощущения человека.
Tes - Эффективная температура на солнце - температура, которую ощущает человек, с поправкой на солнечный нагрев. Характеристика знойности погоды. Зависит от высоты солнца над горизонтом, облачности и скорости ветра. Ночью, в пасмурную погоду, а также при ветре 12 м/с и более поправка равна нулю.
P - Атмосферное давление - приведенное к уровню моря атмосферное давление.
Po - Атмосферное давление - измеренное на уровне метеостанции атмосферное давление.
Tmin - Минимальная температура - минимум температуры воздуха на высоте 2 м над землей.
Tmax - Максимальная температура - максимум температуры воздуха на высоте 2 м над землей.
R - Количество осадков - Количество выпавших осадков за период времени, мм. При наведении курсора мыши на число - период времени, за который выпало указанное количество осадков.
R24 - Количество осадков - Количество выпавших осадков за 24 часа, мм.
S - Снежный покров - Высота снежного покрова, см. При наведении курсора мыши на число - состояние снежного покрова и степень покрытия местности в баллах.